Overview Statistics Trail Chart Weather Telemetry Raw packets
 

This is the latest recevied weather packets stored in our database for station/object ALANSN-2. If no packets are shown the sender has not sent any weather packets the latest 10 day(s).

<< 94 95 96 97 98 99 100 >>
Time Temp. Humidity Pressure Rain* Wind** Luminosity Snow
1787857920 21.11° C 71% 1026.9 hPa 0 mm - 569 W/m² -
1787857620 21.67° C 73% 1026.4 hPa 0 mm - 574 W/m² -
1787857320 21.67° C 73% 1026.4 hPa 0 mm - 574 W/m² -
1787857020 21.67° C 69% 1026.6 hPa 0 mm - 604 W/m² -
1787856720 21.11° C 69% 1026.8 hPa 0 mm - 576 W/m² -
1787856420 21.11° C 69% 1026.8 hPa 0 mm - 576 W/m² -
1787856120 22.22° C 70% 1026.7 hPa 0 mm - 592 W/m² -
1787855819 21.67° C 71% 1026.5 hPa 0 mm - 615 W/m² -
1787855520 21.67° C 71% 1026.5 hPa 0 mm - 615 W/m² -
1787855220 21.67° C 74% 1026.3 hPa 0 mm - 628 W/m² -
1787854923 21.11° C 74% 1026.5 hPa 0 mm - 573 W/m² -
1787854620 21.11° C 74% 1026.5 hPa 0 mm - 573 W/m² -
1787854319 21.67° C 70% 1026.5 hPa 0 mm - 540 W/m² -
1787854019 21.67° C 72% 1026.3 hPa 0 mm - 597 W/m² -
1787853720 21.67° C 72% 1026.3 hPa 0 mm - 597 W/m² -
1787853421 21.67° C 74% 1026.3 hPa 0 mm - 570 W/m² -
1787853119 21.11° C 74% 1026.2 hPa 0 mm - 640 W/m² -
1787852819 21.11° C 74% 1026.2 hPa 0 mm - 640 W/m² -
1787852519 20.56° C 76% 1026.1 hPa 0 mm - 419 W/m² -
1787852218 20.56° C 76% 1026 hPa 0 mm - 511 W/m² -
1787851920 20.56° C 76% 1026 hPa 0 mm - 511 W/m² -
1787851618 21.11° C 75% 1026.2 hPa 0 mm - 667 W/m² -
1787851322 20.56° C 78% 1026 hPa 0 mm - 648 W/m² -
1787851019 20.56° C 78% 1026 hPa 0 mm - 648 W/m² -
1787850718 20.56° C 76% 1026 hPa 0 mm - 648 W/m² -

* Rain latest hour (hover to see other rain measurements)
** Current wind speed in m/s (hover to see current wind gust speed)